Location: Canyon City
(32.5951°N, 116.5278°W)
Time: 01:50:29
(UTC+00:00)

JB-3 - Pass Details

Date: 08 September 2024
Orbit: 505 x 557 km, 97.2° (Epoch: 03 October)

Event Time Altitude Azimuth Distance (km) Brightness Sun altitude
Rises 12:40:56 0° 175° (S) 2,621 7.7 -10.1°
Reaches altitude 10° 12:43:01 10° 178° (S) 1,746 6.8 -9.7°
Maximum altitude 12:46:44 62° 259° (W) 596 4.2 -8.9°
Drops below altitude 10° 12:50:34 10° 342° (NNW) 1,791 6.9 -8.2°
Sets 12:52:44 0° 345° (NNW) 2,696 7.8 -7.7°
